When you browse on this site, cookies collect data to enhance your experience and personalize the content and advertising you see.
Visit our Privacy Policy to learn more. By continuing to use the site, you agree to this use of cookies and data.
  • In France
  • List of Countries
  • For 7 days
  • Water Temperature
  • Satellite Maps
  • Weather Map
  • Weather Widgets
  • user-avatar
    Login

    Hourly Weather Santiago del Estero

    Today, 16 November, Friday

    Time Temperature Precipitation Wind Pressure Humidity
    00:00 +26°C° 0 mm 4 mps 739 mmHg 51%
    01:00 +26°C° 0 mm 3 mps 739 mmHg 52%
    02:00 +25°C° 0 mm 3 mps 739 mmHg 53%
    03:00 +25°C° 0 mm 3 mps 740 mmHg 53%
    04:00 +24°C° 0 mm 3 mps 740 mmHg 53%
    05:00 +24°C° 0 mm 3 mps 740 mmHg 54%
    06:00 +26°C° 0 mm 3 mps 741 mmHg 51%
    07:00 +27°C° 0 mm 3 mps 741 mmHg 48%
    08:00 +28°C° 0 mm 3 mps 742 mmHg 45%
    09:00 +29°C° 0 mm 4 mps 742 mmHg 46%
    10:00 +29°C° 0 mm 4 mps 741 mmHg 46%
    11:00 +30°C° 0 mm 4 mps 741 mmHg 46%
    12:00 +32°C° 0 mm 4 mps 740 mmHg 43%
    13:00 +33°C° 0 mm 5 mps 740 mmHg 40%
    14:00 +34°C° 0 mm 5 mps 739 mmHg 37%
    15:00 +35°C° 0 mm 5 mps 738 mmHg 36%
    16:00 +35°C° 0 mm 6 mps 738 mmHg 35%
    17:00 +36°C° 0 mm 6 mps 737 mmHg 34%
    18:00 +34°C° 0 mm 5 mps 737 mmHg 37%
    19:00 +32°C° 0 mm 5 mps 737 mmHg 40%
    20:00 +30°C° 0 mm 4 mps 737 mmHg 43%
    21:00 +29°C° 0 mm 4 mps 737 mmHg 43%
    22:00 +29°C° 0 mm 4 mps 737 mmHg 44%
    23:00 +29°C° 0 mm 4 mps 737 mmHg 44%

    Tomorrow, 17 November, Saturday

    Time Temperature Precipitation Wind Pressure Humidity
    00:00 +28°C° 0 mm 4 mps 737 mmHg 47%
    01:00 +27°C° 0 mm 3 mps 736 mmHg 50%
    02:00 +27°C° 0 mm 3 mps 735 mmHg 52%
    03:00 +27°C° 0 mm 3 mps 735 mmHg 56%
    04:00 +26°C° 0 mm 3 mps 735 mmHg 59%
    05:00 +26°C° 0 mm 3 mps 735 mmHg 62%
    06:00 +28°C° 0.1 mm 3 mps 735 mmHg 60%
    07:00 +30°C° 0.1 mm 4 mps 736 mmHg 59%
    08:00 +33°C° 0.1 mm 4 mps 736 mmHg 57%
    09:00 +34°C° 0 mm 4 mps 736 mmHg 53%
    10:00 +36°C° 0 mm 4 mps 736 mmHg 48%
    11:00 +38°C° 0 mm 4 mps 736 mmHg 44%
    12:00 +39°C° 0 mm 3 mps 736 mmHg 39%
    13:00 +40°C° 0 mm 2 mps 735 mmHg 35%
    14:00 +42°C° 0 mm 1 mps 735 mmHg 30%
    15:00 +41°C° 0 mm 2 mps 735 mmHg 29%
    16:00 +42°C° 0 mm 3 mps 735 mmHg 28%
    17:00 +42°C° 0 mm 4 mps 734 mmHg 27%
    18:00 +39°C° 0 mm 5 mps 735 mmHg 35%
    19:00 +36°C° 0 mm 7 mps 737 mmHg 42%
    20:00 +33°C° 0 mm 8 mps 738 mmHg 50%
    21:00 +31°C° 0.3 mm 8 mps 739 mmHg 52%
    22:00 +28°C° 0.3 mm 8 mps 740 mmHg 55%
    23:00 +27°C° 0.3 mm 9 mps 742 mmHg 58%

    Day after tomorrow, 18 November, Sunday

    Time Temperature Precipitation Wind Pressure Humidity
    00:00 +24°C° 0.5 mm 8 mps 742 mmHg 55%
    01:00 +23°C° 0.5 mm 7 mps 743 mmHg 53%
    02:00 +22°C° 0.5 mm 6 mps 743 mmHg 50%
    03:00 +22°C° 0.1 mm 6 mps 744 mmHg 46%
    04:00 +22°C° 0.1 mm 5 mps 745 mmHg 42%
    05:00 +21°C° 0.1 mm 4 mps 746 mmHg 38%
    06:00 +21°C° 0 mm 3 mps 747 mmHg 37%
    07:00 +21°C° 0 mm 3 mps 747 mmHg 37%
    08:00 +23°C° 0 mm 2 mps 748 mmHg 37%
    09:00 +24°C° 0 mm 2 mps 748 mmHg 34%
    10:00 +25°C° 0 mm 2 mps 748 mmHg 32%
    11:00 +26°C° 0 mm 2 mps 748 mmHg 29%
    12:00 +27°C° 0 mm 2 mps 748 mmHg 27%
    13:00 +29°C° 0 mm 2 mps 747 mmHg 24%
    14:00 +30°C° 0 mm 2 mps 746 mmHg 22%
    15:00 +30°C° 0 mm 3 mps 745 mmHg 23%
    16:00 +30°C° 0 mm 3 mps 745 mmHg 23%
    17:00 +30°C° 0 mm 3 mps 744 mmHg 24%
    18:00 +28°C° 0 mm 3 mps 744 mmHg 28%
    19:00 +26°C° 0 mm 3 mps 745 mmHg 33%
    20:00 +24°C° 0 mm 3 mps 745 mmHg 37%
    21:00 +24°C° 0 mm 2 mps 745 mmHg 39%
    22:00 +23°C° 0 mm 2 mps 745 mmHg 40%
    23:00 +21°C° 0 mm 2 mps 745 mmHg 42%

    19 November, Monday

    Time Temperature Precipitation Wind Pressure Humidity
    00:00 +21°C° 0 mm 2 mps 744 mmHg 43%
    01:00 +20°C° 0 mm 3 mps 744 mmHg 44%
    02:00 +20°C° 0 mm 3 mps 743 mmHg 46%
    03:00 +19°C° 0 mm 3 mps 743 mmHg 46%
    04:00 +19°C° 0 mm 3 mps 743 mmHg 47%
    05:00 +19°C° 0 mm 4 mps 743 mmHg 48%
    06:00 +20°C° 0 mm 5 mps 743 mmHg 48%
    07:00 +21°C° 0 mm 5 mps 744 mmHg 47%
    08:00 +23°C° 0 mm 6 mps 744 mmHg 47%
    09:00 +26°C° 0 mm 6 mps 744 mmHg 44%
    10:00 +28°C° 0 mm 6 mps 744 mmHg 41%
    11:00 +30°C° 0 mm 6 mps 743 mmHg 39%
    12:00 +32°C° 0 mm 6 mps 742 mmHg 37%
    13:00 +33°C° 0 mm 6 mps 741 mmHg 35%
    14:00 +34°C° 0 mm 6 mps 741 mmHg 34%
    15:00 +34°C° 0 mm 6 mps 740 mmHg 34%
    16:00 +34°C° 0 mm 6 mps 740 mmHg 33%
    17:00 +34°C° 0 mm 6 mps 739 mmHg 33%
    18:00 +32°C° 0 mm 5 mps 740 mmHg 36%
    19:00 +30°C° 0 mm 5 mps 740 mmHg 39%
    20:00 +28°C° 0 mm 4 mps 741 mmHg 42%
    21:00 +27°C° 0 mm 4 mps 741 mmHg 43%
    22:00 +26°C° 0 mm 5 mps 741 mmHg 43%
    23:00 +25°C° 0 mm 5 mps 742 mmHg 44%

    20 November, Tuesday

    Time Temperature Precipitation Wind Pressure Humidity
    00:00 +23°C° 0 mm 5 mps 741 mmHg 45%
    01:00 +23°C° 0 mm 4 mps 741 mmHg 46%
    02:00 +22°C° 0 mm 4 mps 741 mmHg 47%
    03:00 +21°C° 0 mm 4 mps 741 mmHg 49%
    04:00 +21°C° 0 mm 3 mps 741 mmHg 50%
    05:00 +20°C° 0 mm 3 mps 741 mmHg 52%
    06:00 +22°C° 0 mm 4 mps 742 mmHg 50%
    07:00 +23°C° 0 mm 4 mps 742 mmHg 47%
    08:00 +26°C° 0 mm 5 mps 743 mmHg 45%
    09:00 +28°C° 0 mm 5 mps 743 mmHg 41%
    10:00 +30°C° 0 mm 5 mps 743 mmHg 36%
    11:00 +33°C° 0 mm 5 mps 742 mmHg 32%
    12:00 +35°C° 0 mm 5 mps 742 mmHg 30%
    13:00 +36°C° 0 mm 5 mps 741 mmHg 28%
    14:00 +37°C° 0 mm 5 mps 740 mmHg 26%
    15:00 +37°C° 0 mm 5 mps 740 mmHg 26%
    16:00 +37°C° 0 mm 5 mps 739 mmHg 26%
    17:00 +37°C° 0 mm 4 mps 739 mmHg 26%
    18:00 +35°C° 0 mm 4 mps 740 mmHg 29%
    19:00 +33°C° 0 mm 4 mps 740 mmHg 32%
    20:00 +30°C° 0 mm 4 mps 740 mmHg 35%
    21:00 +29°C° 0 mm 4 mps 741 mmHg 37%
    22:00 +28°C° 0 mm 4 mps 741 mmHg 39%
    23:00 +27°C° 0 mm 4 mps 741 mmHg 41%

    21 November, Wednesday

    Time Temperature Precipitation Wind Pressure Humidity
    00:00 +26°C° 0 mm 4 mps 740 mmHg 45%
    01:00 +26°C° 0 mm 4 mps 740 mmHg 49%
    02:00 +25°C° 0 mm 4 mps 739 mmHg 53%
    03:00 +25°C° 0 mm 3 mps 739 mmHg 53%
    04:00 +24°C° 0 mm 3 mps 739 mmHg 53%
    05:00 +24°C° 0 mm 3 mps 739 mmHg 54%
    06:00 +26°C° 0 mm 4 mps 740 mmHg 51%
    07:00 +28°C° 0 mm 5 mps 740 mmHg 49%
    08:00 +29°C° 0 mm 5 mps 740 mmHg 47%
    09:00 +33°C° 0 mm 6 mps 740 mmHg 42%
    10:00 +35°C° 0 mm 6 mps 739 mmHg 37%
    11:00 +38°C° 0 mm 7 mps 739 mmHg 32%
    12:00 +39°C° 0 mm 6 mps 738 mmHg 31%
    13:00 +40°C° 0 mm 6 mps 737 mmHg 29%
    14:00 +41°C° 0 mm 6 mps 736 mmHg 28%
    15:00 +41°C° 0 mm 6 mps 736 mmHg 28%
    16:00 +41°C° 0 mm 6 mps 736 mmHg 29%
    17:00 +41°C° 0 mm 6 mps 735 mmHg 30%
    18:00 +40°C° 0 mm 6 mps 736 mmHg 33%
    19:00 +37°C° 0 mm 5 mps 736 mmHg 37%
    20:00 +35°C° 0 mm 5 mps 737 mmHg 40%
    21:00 +35°C° 0 mm 5 mps 737 mmHg 42%
    22:00 +34°C° 0 mm 5 mps 737 mmHg 43%
    23:00 +34°C° 0 mm 5 mps 738 mmHg 45%
    Show more